Temperature
23 22 22 22 24 26 28 29 30 29 29 29 28 27 26 25 24 22 21 21 20 20 20 19 19 19 19 19 19 18 18 18 18 18 18 18 18 18 18 18 18 18 18 18 18 18 18 18 18
23 22 23 24 26 28 28 30 29 29 29 28 28 27 26 24 23 21 21 20 20 20 20 19 19 19 19 19 19 18 18 18 18 18 18 18 18 18 18 18 18 18 18 18 18 18 18 18 18
23 23 25 27 28 29 29 30 30 30 29 28 28 26 25 24 22 21 21 20 20 20 19 20 19 19 19 19 19 19 18 18 18 18 18 18 18 18 18 18 18 18 18 18 18 18 18 18 18
23 25 27 28 30 30 30 30 31 30 29 29 28 26 24 23 22 21 21 21 20 20 20 20 19 19 19 19 19 19 18 18 18 18 18 18 18 18 18 18 18 18 18 18 18 18 18 18 18
25 27 28 30 30 31 32 31 31 30 30 28 27 25 23 23 22 21 21 21 20 20 20 20 20 19 19 19 19 19 18 18 18 18 18 18 18 18 18 18 18 18 18 18 18 18 18 18 18
27 28 28 30 31 32 32 31 31 31 30 28 27 25 23 22 22 22 21 21 21 20 20 20 20 19 19 19 19 19 19 18 18 18 18 18 18 18 18 18 18 18 18 18 18 18 18 18 19
29 29 30 31 31 31 32 31 31 30 30 29 27 25 23 22 22 22 22 21 21 20 20 20 19 19 19 19 19 19 19 19 18 18 18 18 18 18 18 18 18 18 18 18 18 19 19 19 19
30 31 31 31 31 31 32 31 31 30 30 29 28 26 24 23 22 22 22 21 21 20 20 19 19 19 19 19 19 19 19 19 19 19 19 18 18 19 18 18 19 19 19 19 19 19 19 19 19
32 31 31 32 31 31 32 31 31 30 29 29 27 26 24 23 23 22 22 21 21 20 20 19 19 19 19 19 19 19 19 19 19 18 18 18 18 18 18 18 18 19 19 19 19 19 19 19 19
32 31 32 33 33 32 32 32 31 30 29 28 26 25 24 23 23 22 22 21 21 20 20 20 19 19 19 19 19 19 19 19 18 18 18 18 18 18 18 18 18 19 19 19 19 19 19 18 18
34 32 33 34 33 33 32 32 32 31 29 28 26 25 24 23 23 23 22 22 21 21 20 20 20 19 19 19 19 19 19 19 18 18 18 18 18 18 18 18 18 19 19 18 18 18 18 18 18
34 34 34 34 33 33 33 32 32 31 30 28 26 25 24 24 23 23 23 22 21 21 20 20 20 19 19 19 19 19 19 19 18 18 18 18 18 18 18 18 18 18 18 18 18 18 18 18 18
35 35 35 34 34 33 33 32 32 30 29 28 27 25 25 24 24 23 23 22 21 21 20 20 20 19 19 19 19 19 19 19 19 19 18 18 18 18 18 18 18 18 18 18 18 18 18 18 18
35 35 35 34 34 34 33 32 32 30 29 28 27 26 25 24 24 23 23 22 21 21 21 20 20 19 19 19 19 19 19 19 19 19 19 19 18 18 18 18 19 19 18 18 18 18 18 18 18
35 34 34 35 35 34 33 32 32 30 29 29 28 26 26 25 24 24 23 22 22 21 20 20 20 19 19 19 19 19 19 19 19 19 19 19 18 18 18 18 19 18 19 19 18 18 18 18 18
34 33 32 34 35 34 32 31 32 30 30 29 28 27 26 25 25 24 23 22 22 21 20 20 20 20 20 19 19 19 19 19 19 19 19 19 18 18 18 18 18 18 18 18 18 18 18 18 18
33 32 32 33 35 34 33 31 32 31 30 29 28 28 27 26 25 24 23 22 22 21 21 20 20 20 20 19 19 19 19 19 19 19 19 19 18 18 18 18 18 18 18 18 18 18 18 18 18
32 33 33 33 34 34 33 32 32 32 31 30 29 28 27 26 25 24 24 23 22 21 21 20 20 20 19 19 19 19 19 19 19 19 19 19 19 19 19 18 19 19 18 18 18 18 18 18 18
33 33 33 34 35 34 33 33 33 32 32 30 29 29 28 27 26 25 24 23 22 21 21 20 20 20 19 19 19 19 19 19 19 19 19 19 19 19 18 18 18 19 18 18 18 18 18 18 18
34 33 34 34 35 34 33 33 34 33 33 31 30 29 28 27 26 25 24 23 22 22 21 21 20 20 20 20 19 19 19 19 19 19 19 19 19 18 18 19 18 19 18 18 18 18 18 18 18
33 33 34 34 34 35 34 33 33 33 33 32 31 30 29 28 27 25 24 24 23 22 21 21 21 20 20 20 20 19 19 19 19 19 19 19 19 19 19 18 18 18 18 18 18 18 18 18 18
33 34 34 34 33 33 33 31 32 33 33 33 32 31 30 29 27 26 25 24 23 22 21 21 21 21 20 20 20 19 19 19 19 19 19 19 19 19 18 18 18 18 18 18 18 18 18 18 18
33 34 34 34 33 33 33 32 32 33 32 32 32 32 30 29 28 26 25 24 24 23 22 21 21 21 20 20 20 20 19 19 19 19 19 19 19 19 19 18 18 18 18 18 18 18 18 18 18
34 34 34 34 33 31 33 32 32 33 32 33 33 32 31 30 28 27 26 25 24 23 22 21 21 21 21 20 20 20 20 19 19 19 19 19 19 19 19 18 18 18 18 18 18 18 18 18 18
33 32 31 31 31 31 33 33 32 33 34 33 33 32 31 30 29 27 26 25 24 23 23 22 21 21 21 20 20 20 20 20 19 19 19 19 19 19 19 18 18 18 18 18 18 18 18 18 18
33 32 31 30 30 31 32 32 32 34 34 33 33 32 31 30 29 28 27 25 24 24 23 22 21 21 21 20 20 20 20 20 19 19 19 19 19 19 19 19 19 18 18 18 18 18 18 18 18
32 32 33 32 31 31 31 32 33 34 33 33 33 32 31 30 29 28 27 25 24 24 23 22 22 21 21 21 20 20 20 20 19 19 19 19 19 19 19 19 18 18 18 18 18 18 18 18 18
33 33 32 31 29 29 31 31 32 32 32 33 32 31 30 30 29 28 27 26 25 24 23 22 22 21 21 21 20 20 20 20 20 19 19 19 19 19 19 19 18 18 18 18 18 18 18 17 18
32 31 31 31 31 30 29 30 33 32 31 32 32 31 30 29 29 28 27 26 25 24 23 23 22 21 21 20 20 20 20 20 20 20 19 19 19 19 19 18 18 18 18 18 18 18 18 17 17
32 32 31 30 29 30 30 30 33 33 32 32 31 30 29 28 28 27 26 26 25 24 23 23 22 21 21 20 20 20 20 19 19 19 19 19 19 19 19 19 18 18 18 18 18 18 17 17 17
Wind_Speed
10 11 9 5 4 1 12 14 14 14 14 14 14 13 16 15 10 10 9 12 15 15 16 17 16 16 15 15 16 16 16 16 17 16 16 16 16 16 16 15 15 14 14 14 14 14 14 14 13
9 10 7 4 1 7 13 13 15 14 13 13 14 16 17 15 13 11 10 12 15 15 16 16 16 16 15 15 15 15 16 16 16 16 15 15 15 15 14 14 13 13 13 13 13 13 13 13 12
11 12 5 3 6 11 13 13 13 13 12 12 14 15 12 11 11 9 12 13 14 15 17 17 16 16 16 15 15 14 15 15 15 15 15 14 14 14 14 13 13 13 12 13 13 13 12 12 11
7 6 4 1 12 14 14 12 12 12 12 12 13 12 12 11 11 13 15 14 15 15 17 16 16 16 15 14 14 14 14 14 13 13 13 13 13 13 12 12 12 12 11 12 12 12 11 11 9
8 3 1 7 14 14 13 12 12 13 13 15 17 15 13 14 17 16 15 14 14 14 15 16 16 16 15 14 14 13 13 13 13 12 12 12 12 12 11 11 11 11 11 11 11 11 10 9 8
5 2 1 9 13 13 12 11 13 14 14 15 16 15 12 14 15 14 14 13 14 14 14 16 16 16 14 13 13 12 12 12 12 12 11 11 11 11 11 11 11 10 10 10 10 10 9 8 7
6 3 3 10 11 11 11 12 12 12 12 12 13 13 11 13 14 14 14 13 12 13 13 13 14 14 13 13 12 12 11 11 11 11 10 10 10 10 10 11 10 10 10 10 9 9 9 8 6
5 3 4 10 10 11 11 12 11 11 12 11 11 10 12 14 14 14 13 13 12 11 11 11 12 12 12 12 12 11 11 10 10 10 10 9 10 10 11 11 10 10 10 9 9 9 8 7 7
5 3 5 9 9 10 10 11 11 12 11 12 13 15 17 17 16 14 13 12 11 11 10 10 10 10 10 11 11 10 10 9 9 8 9 10 9 10 10 10 11 10 10 9 9 8 8 8 8
1 3 8 9 10 9 9 9 9 11 11 15 17 18 19 16 15 14 13 13 12 11 10 8 9 9 9 9 10 9 9 9 7 7 8 8 8 8 9 11 11 11 10 9 9 9 8 8 7
2 5 6 8 9 9 8 8 8 10 10 13 18 19 18 16 14 13 13 12 12 11 9 9 8 8 7 6 7 5 6 8 6 6 7 7 7 8 9 8 8 9 9 8 9 8 8 7 5
2 5 5 7 7 8 8 8 9 9 11 15 18 19 17 16 14 13 12 12 11 10 9 8 8 7 5 5 5 5 4 5 5 6 5 5 4 4 6 5 7 7 7 6 6 5 6 4 3
2 3 4 6 6 7 7 8 8 12 13 16 18 18 16 15 14 12 12 12 12 11 9 8 8 6 4 3 2 4 3 4 7 6 4 5 4 3 4 3 4 4 5 4 3 3 2 2 2
1 1 2 5 6 7 7 7 7 11 14 16 17 16 16 14 14 13 12 12 12 10 10 9 9 7 5 3 1 1 3 4 6 6 6 4 4 4 3 3 2 2 3 3 2 2 2 1 1
4 3 1 3 5 5 5 5 8 11 13 15 16 15 15 14 13 13 12 12 12 11 10 9 9 8 6 4 3 2 2 5 4 5 6 5 5 4 3 3 3 3 3 4 2 2 2 2 1
6 6 4 3 4 5 3 4 11 13 13 12 14 15 14 13 13 13 13 12 12 11 10 8 9 10 7 5 3 2 3 4 4 6 7 5 5 4 3 2 2 3 3 3 2 2 1 1 1
8 6 5 4 5 4 4 4 9 12 12 11 12 14 15 14 13 13 14 13 12 11 10 8 7 8 8 6 3 1 2 3 4 5 5 5 5 3 2 1 2 2 2 1 2 2 1 1 1
8 8 5 4 3 2 2 5 10 12 12 12 12 14 14 15 14 14 14 14 13 12 10 9 7 7 6 6 4 2 2 3 3 4 5 6 5 4 3 2 3 1 1 1 1 1 1 1 1
10 10 7 3 1 2 4 5 9 10 12 13 14 14 15 15 16 15 15 14 14 13 11 9 8 7 5 5 5 4 3 3 3 4 6 6 4 4 3 1 3 2 1 1 1 1 1 2 2
11 12 9 4 3 5 7 8 8 10 12 13 14 15 15 16 17 16 15 15 15 14 12 11 9 9 7 5 4 4 4 3 3 3 5 6 5 5 4 2 2 2 2 2 1 1 1 2 2
13 12 10 8 8 9 9 8 7 10 11 12 13 14 15 16 18 17 16 15 15 15 14 12 10 10 8 7 5 4 3 2 3 4 5 5 5 5 3 3 2 1 2 2 2 2 2 2 2
12 11 11 11 11 9 9 8 8 9 11 12 12 14 15 15 17 18 17 16 16 15 14 12 10 10 9 8 7 6 5 5 5 4 4 5 5 5 5 3 3 1 1 1 3 3 2 3 3
13 11 11 12 12 13 13 10 7 9 10 11 12 13 14 15 16 17 18 17 16 16 15 13 11 10 10 8 8 6 6 5 4 5 5 5 5 5 5 4 3 3 2 2 2 1 2 2 3
12 13 14 13 13 14 13 12 7 5 7 9 11 12 12 14 16 15 15 15 15 16 15 15 13 11 11 10 8 7 6 6 5 6 6 6 5 4 5 5 4 3 2 2 2 2 2 2 3
11 12 10 11 10 11 10 10 3 5 5 7 9 10 10 12 13 14 14 14 15 15 15 15 15 13 12 11 9 8 7 6 5 5 6 5 5 5 5 5 4 3 3 3 2 2 2 1 3
12 14 12 12 10 10 9 8 3 5 5 6 8 10 10 11 12 13 14 13 12 14 15 15 15 13 13 12 10 8 7 7 6 6 5 5 4 4 5 5 5 4 4 3 2 2 3 2 3
13 13 14 14 15 14 9 7 4 5 7 7 7 8 9 9 10 11 12 13 12 12 12 13 14 13 13 13 10 8 8 7 6 6 6 4 4 4 5 5 5 4 4 3 3 2 3 2 3
13 13 10 11 10 12 11 8 4 5 5 5 5 5 5 6 6 9 11 12 12 13 12 12 12 14 13 11 11 10 9 8 6 6 6 4 4 3 4 5 5 5 4 4 3 2 2 2 2
12 13 12 10 11 11 11 6 1 2 3 4 5 5 4 5 6 6 7 10 12 12 12 12 12 12 12 11 10 8 9 9 8 6 5 5 4 4 4 4 4 4 4 4 3 3 3 3 3
13 13 13 11 10 11 12 7 3 1 2 4 5 4 3 3 3 3 5 6 8 10 11 11 10 11 11 11 9 9 8 9 9 8 6 5 5 5 4 4 4 4 4 4 4 4 3 3 3
Wind_Direction
196 213 219 243 250 106 63 64 67 67 64 59 58 67 64 55 71 95 104 104 111 114 116 113 110 106 102 99 101 105 105 105 104 105 105 106 107 108 110 111 113 116 117 118 116 115 115 116 117
220 226 230 246 271 71 69 67 69 70 74 76 71 70 70 67 79 100 106 112 117 116 117 114 113 109 106 104 102 103 105 106 106 106 106 106 106 109 111 113 116 117 120 122 122 121 121 121 123
248 246 255 239 66 70 75 73 79 82 80 79 78 66 62 79 90 107 116 120 117 113 114 117 117 113 110 107 106 105 105 107 109 108 108 107 108 112 115 116 119 119 120 123 125 124 125 126 129
246 242 243 68 73 75 81 83 86 86 79 77 83 77 72 82 101 115 123 120 115 114 116 121 121 118 115 112 110 109 108 108 110 110 111 110 111 112 115 117 119 120 121 125 127 127 129 130 133
245 274 260 80 82 82 86 88 86 82 81 78 82 88 85 89 106 117 125 123 119 118 119 124 125 123 120 118 115 113 111 112 111 111 112 114 116 116 118 117 120 122 125 129 131 131 132 134 141
257 263 89 82 86 85 82 82 80 80 87 93 96 97 96 112 116 122 120 117 119 120 118 122 128 128 125 123 121 119 117 117 116 115 117 119 120 121 123 125 126 128 130 132 134 137 138 143 151
263 299 87 92 89 88 84 81 81 85 85 92 103 103 112 120 122 124 118 116 117 118 121 125 128 129 129 130 129 126 124 122 121 122 125 127 129 129 130 133 134 135 135 137 140 144 146 156 167
266 315 52 86 91 89 91 86 85 86 85 95 106 108 125 131 132 127 123 121 119 121 126 131 133 132 136 136 136 131 129 128 129 132 137 138 141 143 144 144 143 144 144 146 149 153 163 173 185
278 295 62 82 94 97 98 97 96 94 88 81 81 106 128 136 135 132 131 129 128 128 129 132 133 137 137 135 135 140 141 141 144 148 157 159 161 158 160 148 150 153 154 156 162 169 177 187 202
258 26 67 81 97 101 103 107 114 109 102 99 99 112 128 138 139 140 140 137 136 134 137 137 132 136 133 132 138 151 150 154 161 160 172 180 170 156 144 148 156 162 164 167 176 182 188 204 209
61 61 71 87 96 106 106 105 100 104 110 120 127 132 138 142 145 147 144 143 142 142 141 137 131 128 129 133 145 154 152 158 167 168 175 171 157 145 140 149 161 172 176 183 177 192 206 213 211
65 83 75 87 99 107 107 101 95 89 110 124 133 140 145 149 152 151 147 146 143 140 141 140 131 126 127 131 137 155 157 160 154 158 163 151 146 142 145 154 168 176 183 181 178 198 199 195 208
20 88 101 103 104 105 107 103 99 106 117 126 135 144 149 153 153 149 147 146 141 144 147 138 120 110 107 111 157 152 154 154 145 151 150 140 134 133 140 138 157 180 164 167 178 175 141 145 192
333 56 118 129 128 133 123 118 120 123 129 134 142 151 152 156 154 151 151 148 147 148 145 138 131 129 129 135 156 114 140 129 134 144 151 153 135 130 133 135 164 153 145 145 156 143 140 189 166
297 285 228 166 158 137 124 136 136 139 144 147 150 154 156 159 157 156 157 155 153 149 144 143 145 143 147 157 178 145 142 142 138 136 139 148 138 142 152 149 171 168 168 146 164 145 166 201 185
270 264 243 198 176 143 165 153 149 153 152 156 157 158 161 162 164 161 160 157 152 150 147 154 157 151 157 165 177 156 152 133 133 136 136 142 139 155 168 160 153 154 153 150 159 170 182 179 132
271 253 238 211 196 174 187 169 155 159 157 164 167 164 166 166 170 164 163 159 153 148 149 158 155 151 159 160 164 158 126 123 132 134 138 149 145 161 194 149 124 154 143 162 189 131 143 173 164
279 272 255 232 184 188 210 175 164 170 163 167 176 172 170 171 173 168 164 160 154 150 152 157 154 153 158 154 161 168 143 141 144 139 136 140 149 166 204 158 147 165 136 140 94 92 175 231 224
273 281 284 265 198 253 248 219 180 177 173 173 177 177 174 175 172 170 167 165 160 157 157 161 163 158 161 163 169 171 169 169 157 149 144 152 165 172 188 189 137 174 178 160 142 128 220 245 216
279 284 285 275 255 258 253 242 203 190 191 185 180 175 178 176 172 173 172 171 168 164 164 165 167 167 173 174 179 174 174 171 167 155 147 164 176 176 182 186 183 186 183 175 181 183 227 254 227
275 279 290 297 291 275 268 260 224 203 206 192 184 181 180 180 176 175 177 177 173 171 171 174 173 171 178 174 175 178 164 174 165 159 161 171 178 178 197 172 190 200 198 180 196 203 218 253 267
272 280 288 287 283 282 273 267 237 215 202 189 184 186 183 182 177 176 179 181 180 177 173 169 170 172 177 176 180 179 171 177 183 170 165 171 184 185 185 185 184 223 231 189 216 201 231 239 263
276 291 289 282 277 275 268 266 243 210 203 192 190 188 182 180 179 178 182 183 182 179 175 171 169 175 177 180 185 185 186 187 177 167 163 169 179 184 183 182 183 202 219 251 256 271 259 249 262
275 281 273 267 267 263 262 263 244 207 198 193 191 185 177 178 176 174 178 177 181 179 175 173 172 178 179 182 186 187 193 191 187 180 171 179 178 183 185 183 187 195 206 228 235 250 247 264 290
255 265 268 259 249 261 270 265 248 177 192 178 173 176 178 169 166 168 173 178 181 178 177 176 175 180 182 184 189 189 191 195 196 191 186 190 182 183 185 185 175 186 206 218 223 233 244 253 278
248 254 259 271 277 281 269 260 222 170 153 152 164 167 168 169 168 171 175 173 178 181 179 176 176 179 182 186 192 192 189 197 203 205 200 194 195 183 174 175 173 184 200 212 208 229 228 226 241
257 256 267 274 276 278 270 268 240 172 165 165 160 157 163 169 170 172 170 170 176 184 183 181 175 178 183 187 188 189 192 201 204 196 204 203 199 190 171 171 175 185 198 210 211 222 233 223 234
251 266 271 270 277 277 274 264 246 152 148 151 138 133 143 148 161 165 169 173 175 184 187 186 178 181 183 185 191 193 193 197 201 202 199 199 193 190 174 175 180 186 192 201 219 221 227 238 253
241 248 258 268 270 275 278 281 255 132 174 176 144 133 147 164 166 157 161 173 175 180 187 183 179 178 180 185 188 189 187 190 195 198 197 192 201 194 189 186 187 191 191 191 208 223 212 228 249
251 254 255 260 266 271 275 273 267 202 160 144 126 105 107 111 113 129 148 162 171 177 183 180 178 180 180 182 182 187 186 186 191 191 194 190 194 203 195 189 192 201 190 192 207 221 222 217 230
Height
1481 1480 1481 1484 1483 1480 1477 1471 1468 1471 1473 1476 1477 1478 1482 1486 1492 1505 1506 1506 1507 1508 1510 1511 1513 1513 1514 1515 1515 1517 1518 1519 1520 1522 1523 1525 1526 1528 1529 1531 1533 1535 1537 1538 1540 1542 1544 1546 1547
1481 1482 1485 1484 1481 1484 1482 1472 1473 1475 1477 1478 1480 1482 1486 1492 1497 1502 1505 1508 1509 1510 1512 1514 1515 1516 1517 1518 1518 1519 1520 1522 1523 1525 1526 1527 1528 1530 1531 1533 1535 1536 1538 1540 1542 1544 1545 1547 1549
1481 1484 1485 1478 1476 1481 1482 1474 1474 1476 1478 1479 1483 1487 1492 1498 1501 1504 1507 1509 1511 1513 1514 1516 1517 1518 1519 1520 1521 1522 1523 1524 1526 1527 1528 1529 1531 1532 1534 1535 1536 1538 1540 1542 1544 1546 1547 1549 1550
1483 1484 1481 1476 1476 1473 1473 1473 1474 1476 1479 1481 1484 1491 1498 1502 1504 1507 1509 1511 1513 1515 1516 1517 1519 1520 1521 1523 1524 1525 1526 1527 1528 1529 1530 1532 1533 1534 1536 1537 1538 1540 1541 1543 1545 1547 1549 1550 1552
1485 1482 1479 1476 1474 1471 1470 1473 1475 1477 1480 1484 1488 1496 1502 1506 1507 1509 1511 1513 1515 1517 1518 1519 1521 1522 1523 1525 1526 1527 1528 1529 1531 1531 1532 1533 1535 1536 1537 1538 1540 1541 1543 1545 1547 1548 1550 1552 1553
1484 1479 1483 1482 1476 1471 1472 1474 1476 1479 1482 1486 1491 1498 1506 1509 1510 1512 1514 1516 1517 1518 1520 1521 1523 1524 1525 1527 1528 1529 1530 1531 1532 1533 1534 1535 1536 1538 1539 1540 1541 1543 1544 1546 1548 1550 1551 1553 1555
1480 1477 1477 1476 1478 1476 1474 1476 1478 1481 1484 1487 1491 1498 1507 1510 1512 1514 1516 1518 1520 1521 1522 1523 1525 1526 1527 1529 1530 1531 1532 1533 1534 1535 1536 1537 1538 1539 1540 1542 1543 1544 1546 1548 1549 1551 1552 1554 1556
1475 1474 1473 1474 1478 1478 1475 1478 1481 1483 1486 1489 1492 1498 1506 1511 1513 1516 1518 1520 1521 1523 1524 1526 1527 1528 1529 1530 1531 1532 1533 1534 1535 1536 1537 1538 1539 1540 1542 1543 1544 1546 1547 1549 1551 1552 1554 1555 1557
1473 1475 1477 1474 1476 1476 1476 1479 1482 1485 1487 1491 1493 1498 1505 1510 1513 1516 1519 1521 1523 1525 1526 1528 1529 1530 1531 1532 1533 1534 1535 1535 1536 1537 1538 1539 1540 1541 1543 1544 1546 1547 1549 1550 1552 1554 1555 1557 1558
1471 1477 1473 1468 1469 1473 1476 1479 1481 1484 1488 1493 1498 1503 1507 1510 1513 1516 1519 1521 1524 1526 1528 1529 1530 1531 1533 1534 1534 1535 1536 1536 1537 1538 1539 1539 1541 1543 1544 1546 1547 1549 1550 1552 1553 1555 1556 1557 1558
1468 1471 1467 1468 1470 1473 1475 1478 1480 1483 1488 1493 1499 1503 1507 1511 1514 1516 1519 1522 1524 1526 1528 1530 1531 1532 1534 1534 1535 1536 1537 1537 1538 1538 1538 1539 1541 1544 1545 1547 1548 1550 1551 1553 1554 1555 1556 1558 1559
1467 1468 1467 1468 1471 1473 1475 1478 1481 1484 1489 1494 1498 1503 1507 1510 1513 1516 1519 1522 1524 1527 1529 1531 1532 1533 1534 1535 1536 1537 1538 1538 1539 1539 1539 1539 1541 1544 1546 1547 1549 1550 1552 1553 1555 1556 1557 1558 1559
1467 1467 1467 1469 1471 1473 1475 1478 1482 1486 1490 1494 1499 1503 1507 1510 1513 1516 1519 1522 1524 1526 1529 1531 1532 1533 1534 1535 1536 1538 1538 1539 1539 1540 1541 1542 1543 1545 1547 1548 1549 1551 1553 1554 1555 1557 1558 1558 1559
1468 1467 1467 1468 1470 1472 1475 1479 1482 1487 1491 1495 1499 1503 1506 1510 1512 1515 1519 1521 1523 1526 1528 1530 1531 1532 1534 1535 1536 1537 1538 1539 1540 1541 1542 1543 1545 1546 1548 1549 1550 1552 1553 1554 1555 1556 1557 1558 1559
1468 1468 1468 1467 1468 1470 1475 1480 1482 1486 1490 1494 1498 1502 1506 1509 1512 1515 1518 1520 1523 1525 1528 1529 1531 1532 1534 1535 1536 1537 1538 1539 1540 1541 1542 1544 1545 1547 1548 1549 1551 1552 1554 1555 1556 1556 1557 1558 1559
1470 1474 1478 1469 1466 1469 1477 1487 1481 1484 1489 1492 1496 1500 1504 1508 1511 1514 1517 1520 1522 1524 1527 1529 1531 1532 1534 1535 1537 1538 1538 1539 1540 1542 1543 1544 1545 1547 1548 1550 1551 1552 1554 1555 1556 1556 1557 1557 1558
1475 1481 1479 1471 1464 1465 1473 1481 1478 1482 1486 1491 1494 1498 1502 1506 1510 1513 1516 1519 1521 1523 1526 1528 1531 1532 1533 1535 1536 1538 1539 1540 1541 1542 1543 1544 1546 1547 1549 1550 1551 1553 1554 1554 1555 1556 1556 1557 1557
1483 1478 1475 1473 1463 1465 1471 1474 1475 1478 1482 1486 1491 1495 1499 1503 1507 1511 1514 1517 1520 1522 1525 1527 1530 1531 1533 1535 1536 1538 1539 1540 1541 1542 1543 1544 1546 1547 1548 1550 1551 1552 1553 1554 1555 1555 1556 1556 1556
1470 1472 1473 1467 1461 1466 1472 1472 1471 1474 1478 1482 1487 1492 1495 1500 1505 1509 1513 1516 1518 1520 1523 1525 1528 1530 1532 1534 1535 1537 1538 1540 1541 1542 1543 1544 1545 1547 1548 1550 1551 1552 1552 1553 1554 1554 1554 1555 1556
1469 1472 1470 1464 1460 1464 1468 1468 1465 1469 1473 1477 1482 1486 1491 1496 1501 1506 1510 1513 1516 1518 1520 1523 1525 1528 1530 1532 1534 1536 1538 1539 1541 1542 1542 1544 1545 1546 1548 1549 1550 1551 1552 1552 1553 1553 1554 1554 1555
1470 1471 1469 1469 1463 1461 1466 1472 1467 1465 1468 1472 1477 1482 1486 1491 1496 1501 1506 1510 1513 1515 1518 1520 1523 1526 1528 1531 1533 1536 1537 1539 1541 1541 1542 1543 1544 1545 1546 1548 1549 1550 1551 1551 1552 1552 1553 1553 1554
1474 1463 1464 1466 1471 1473 1469 1487 1472 1465 1465 1468 1473 1478 1482 1487 1492 1497 1502 1506 1509 1512 1515 1518 1520 1523 1526 1529 1531 1533 1535 1537 1539 1540 1541 1542 1543 1544 1545 1547 1548 1549 1550 1550 1550 1551 1551 1552 1552
1467 1461 1462 1465 1469 1474 1468 1477 1472 1461 1465 1465 1468 1472 1477 1482 1487 1492 1497 1501 1506 1510 1512 1515 1518 1520 1523 1526 1529 1531 1533 1536 1538 1539 1540 1541 1542 1543 1544 1545 1546 1547 1548 1548 1549 1549 1550 1550 1551
1462 1463 1463 1463 1468 1484 1471 1474 1475 1461 1461 1461 1464 1469 1474 1479 1484 1489 1494 1498 1502 1506 1510 1512 1514 1517 1520 1523 1525 1528 1531 1533 1535 1537 1538 1539 1541 1541 1542 1543 1544 1545 1546 1547 1547 1547 1548 1548 1548
1464 1476 1486 1489 1488 1485 1463 1468 1467 1453 1451 1454 1459 1466 1470 1476 1481 1486 1490 1494 1499 1502 1506 1508 1511 1513 1516 1519 1522 1525 1528 1530 1533 1535 1536 1538 1539 1540 1541 1542 1543 1543 1544 1545 1545 1545 1546 1545 1546
1465 1470 1489 1500 1495 1482 1467 1469 1459 1448 1450 1453 1458 1463 1469 1473 1478 1482 1487 1491 1495 1499 1502 1505 1507 1510 1513 1516 1519 1522 1525 1527 1530 1532 1534 1536 1537 1538 1539 1540 1541 1542 1542 1543 1543 1544 1544 1544 1544
1466 1466 1461 1472 1477 1482 1473 1462 1452 1448 1450 1453 1457 1462 1466 1471 1475 1479 1483 1487 1492 1496 1499 1502 1504 1507 1510 1513 1516 1519 1522 1524 1527 1529 1532 1533 1535 1536 1537 1538 1539 1540 1540 1541 1541 1541 1541 1542 1542
1459 1461 1467 1476 1492 1495 1480 1470 1464 1455 1454 1453 1456 1461 1465 1469 1473 1477 1481 1485 1488 1493 1496 1500 1503 1505 1507 1510 1513 1516 1518 1521 1524 1526 1528 1530 1532 1534 1535 1536 1536 1537 1538 1538 1538 1539 1539 1539 1539
1461 1465 1466 1469 1473 1488 1491 1478 1448 1450 1453 1454 1457 1461 1465 1469 1471 1475 1479 1483 1487 1490 1494 1498 1500 1502 1505 1507 1510 1514 1516 1518 1521 1523 1525 1527 1529 1531 1532 1533 1534 1534 1535 1535 1536 1536 1536 1536 1537
1454 1459 1464 1477 1478 1474 1480 1475 1446 1447 1449 1452 1456 1462 1466 1469 1471 1474 1477 1481 1485 1488 1491 1494 1497 1499 1502 1505 1507 1510 1513 1515 1518 1520 1522 1524 1526 1527 1529 1530 1531 1532 1532 1532 1533 1533 1534 1534 1534